Weather History for Las Cruces, NM

Change the Weather History Date:

Tuesday, May 28, 2013

  Actual Average Record
Temperature  
Mean Temperature 74 °F -  
Max Temperature 90 °F 89 °F 96 °F (2008)
Min Temperature 57 °F 60 °F 48 °F (2012)
Cooling Degree Days 8    
Growing Degree Days 24 (Base 50)    
Moisture  
Dew Point 11 °F    
Average Humidity 9    
Maximum Humidity 14    
Minimum Humidity 5    
Precipitation  
Precipitation 0.00 in - - ()
Sea Level Pressure  
Sea Level Pressure 29.82 in    
Wind  
Wind Speed 10 mph (WSW)    
Max Wind Speed 25 mph    
Max Gust Speed 36 mph    
Visibility 10 miles    
Events      
Averages and records for this station are not official NWS values.
T = Trace of Precipitation, MM = Missing Value Source: NWS Daily Summary

Daily Weather History Graph

Daily Weather History Graph

Search for Another Location

Airport:

Trip Planner

Search our weather history database for the weather conditions in past years. The results will help you decide how hot, cold, wet, or windy it might be!

Date:

Astronomy

May. 28, 2013 Rise Set
Actual Time 6:02 AM MDT 8:07 PM MDT
Civil Twilight 5:35 AM MDT 8:35 PM MDT
Nautical Twilight 5:01 AM MDT 9:09 PM MDT
Astronomical Twilight 4:25 AM MDT 9:45 PM MDT
Moon 11:40 PM MDT (5/28) 9:49 AM MDT (5/28)
Length of Visible Light 15h 00m
Length of Day
14h 04m
Waning Gibbous, 82% of the Moon is Illuminated
May 28
Waning Gibbous
May 31
Last Quarter
Jun 8
New
Jun 16
First Quarter
Jun 23
Full

Hourly Weather History & Observations

Time (MDT) Temp. Dew Point Humidity Pressure Visibility Wind Dir Wind Speed Gust Speed Precip Events Conditions
12:15 AM 65.3 °F 9.5 °F 11% 29.88 in 10.0 mi West 4.6 mph - N/A   Clear
12:35 AM 67.3 °F 9.7 °F 11% 29.88 in 10.0 mi West 6.9 mph - N/A   Clear
1:15 AM 61.5 °F 7.5 °F 12% 29.87 in 10.0 mi West 9.2 mph - N/A   Clear
1:35 AM 64.8 °F 8.8 °F 11% 29.87 in 10.0 mi West 12.7 mph - N/A   Clear
1:55 AM 63.5 °F 7.7 °F 11% 29.87 in 10.0 mi West 9.2 mph - N/A   Clear
2:15 AM 62.4 °F 7.5 °F 11% 29.87 in 10.0 mi WNW 10.4 mph - N/A   Clear
2:35 AM 64.0 °F 8.4 °F 11% 29.86 in 10.0 mi West 10.4 mph - N/A   Clear
2:55 AM 65.8 °F 8.8 °F 11% 29.87 in 10.0 mi West 6.9 mph - N/A   Clear
3:15 AM 64.8 °F 8.6 °F 11% 29.86 in 10.0 mi West 10.4 mph - N/A   Clear
3:35 AM 63.0 °F 8.2 °F 12% 29.86 in 10.0 mi WNW 10.4 mph - N/A   Clear
3:55 AM 63.7 °F 8.6 °F 11% 29.86 in 10.0 mi West 10.4 mph - N/A   Clear
4:15 AM 62.1 °F 8.6 °F 12% 29.87 in 10.0 mi West 9.2 mph - N/A   Clear
4:35 AM 60.8 °F 8.4 °F 13% 29.88 in 10.0 mi WSW 10.4 mph - N/A   Clear
4:55 AM 61.0 °F 8.8 °F 13% 29.88 in 10.0 mi WSW 12.7 mph - N/A   Clear
5:15 AM 60.4 °F 8.8 °F 13% 29.88 in 10.0 mi West 9.2 mph - N/A   Clear
5:35 AM 59.2 °F 8.6 °F 13% 29.87 in 10.0 mi West 11.5 mph - N/A   Clear
5:55 AM 59.7 °F 8.6 °F 13% 29.88 in 10.0 mi WNW 3.5 mph - N/A   Clear
6:15 AM 57.6 °F 7.9 °F 14% 29.88 in 10.0 mi NNW 8.1 mph - N/A   Clear
6:35 AM 58.8 °F 8.2 °F 13% 29.88 in 10.0 mi West 9.2 mph - N/A   Clear
6:55 AM 60.8 °F 8.8 °F 13% 29.90 in 10.0 mi Calm Calm - N/A   Clear
7:15 AM 62.2 °F 9.3 °F 12% 29.89 in 10.0 mi Calm Calm - N/A   Clear
7:35 AM 64.9 °F 10.2 °F 12% 29.89 in 10.0 mi West 3.5 mph - N/A   Clear
7:55 AM 68.4 °F 11.7 °F 11% 29.89 in 10.0 mi West 5.8 mph - N/A   Clear
8:15 AM 70.5 °F 12.6 °F 11% 29.89 in 10.0 mi West 9.2 mph - N/A   Clear
8:35 AM 71.4 °F 13.5 °F 11% 29.88 in 10.0 mi West 8.1 mph - N/A   Clear
8:55 AM 74.3 °F 13.8 °F 10% 29.88 in 10.0 mi WSW 6.9 mph - N/A   Clear
9:15 AM 76.5 °F 14.0 °F 9% 29.88 in 10.0 mi WSW 8.1 mph - N/A   Clear
9:35 AM 78.1 °F 14.7 °F 9% 29.88 in 10.0 mi SW 9.2 mph - N/A   Clear
9:55 AM 80.8 °F 14.7 °F 8% 29.88 in 10.0 mi WSW 12.7 mph - N/A   Clear
10:15 AM 81.5 °F 13.8 °F 8% 29.88 in 10.0 mi West 12.7 mph 16.1 mph N/A   Clear
10:35 AM 82.2 °F 14.0 °F 8% 29.88 in 10.0 mi West 11.5 mph 18.4 mph N/A   Clear
10:55 AM 82.4 °F 14.7 °F 8% 29.88 in 10.0 mi WSW 6.9 mph 21.9 mph N/A   Clear
11:15 AM 83.7 °F 15.8 °F 8% 29.88 in 10.0 mi West 13.8 mph 20.7 mph N/A   Clear
11:35 AM 83.5 °F 16.7 °F 8% 29.87 in 10.0 mi SW 15.0 mph 20.7 mph N/A   Clear
11:55 AM 84.0 °F 16.2 °F 8% 29.87 in 10.0 mi SW 15.0 mph 19.6 mph N/A   Clear
12:15 PM 84.9 °F 16.5 °F 8% 29.86 in 10.0 mi WSW 8.1 mph 17.3 mph N/A   Clear
12:35 PM 85.6 °F 17.2 °F 8% 29.84 in 10.0 mi SW 10.4 mph - N/A   Scattered Clouds
12:55 PM 86.2 °F 18.5 °F 8% 29.84 in 10.0 mi WSW 13.8 mph 25.3 mph N/A   Clear
1:15 PM 87.1 °F 15.8 °F 7% 29.83 in 10.0 mi WSW 13.8 mph 23.0 mph N/A   Clear
1:35 PM 85.8 °F 17.6 °F 8% 29.82 in 10.0 mi WSW 6.9 mph 23.0 mph N/A   Clear
1:55 PM 87.1 °F 16.9 °F 7% 29.81 in 10.0 mi South 11.5 mph 24.2 mph N/A   Clear
2:15 PM 88.5 °F 16.7 °F 7% 29.80 in 10.0 mi WSW 17.3 mph 27.6 mph N/A   Clear
2:35 PM 90.1 °F 16.9 °F 7% 29.79 in 10.0 mi SW 25.3 mph 31.1 mph N/A   Clear
2:55 PM 89.6 °F 13.1 °F 6% 29.78 in 10.0 mi SSW 19.6 mph 33.4 mph N/A   Clear
3:15 PM 89.6 °F 15.8 °F 7% 29.78 in 10.0 mi WSW 17.3 mph 32.2 mph N/A   Clear
3:35 PM 89.4 °F 14.5 °F 6% 29.77 in 10.0 mi WSW 24.2 mph 35.7 mph N/A   Clear
3:55 PM 89.6 °F 15.1 °F 6% 29.76 in 10.0 mi SW 19.6 mph 28.8 mph N/A   Clear
4:15 PM 90.0 °F 15.1 °F 6% 29.75 in 10.0 mi WSW 17.3 mph 26.5 mph N/A   Clear
4:35 PM 90.7 °F 13.6 °F 6% 29.75 in 10.0 mi WSW 20.7 mph - N/A   Clear
4:55 PM 90.1 °F 12.0 °F 5% 29.74 in 10.0 mi SW 21.9 mph 31.1 mph N/A   Clear
5:15 PM 89.8 °F 8.2 °F 5% 29.74 in 10.0 mi SW 15.0 mph 23.0 mph N/A   Clear
5:35 PM 89.6 °F 10.0 °F 5% 29.73 in 10.0 mi West 20.7 mph 27.6 mph N/A   Clear
5:55 PM 88.9 °F 10.6 °F 5% 29.73 in 10.0 mi West 19.6 mph 26.5 mph N/A   Clear
6:15 PM 87.4 °F 10.4 °F 6% 29.72 in 10.0 mi West 19.6 mph 27.6 mph N/A   Clear
6:35 PM 87.1 °F 11.3 °F 6% 29.72 in 10.0 mi WSW 17.3 mph 29.9 mph N/A   Clear
6:55 PM 86.0 °F 9.9 °F 6% 29.72 in 10.0 mi WSW 16.1 mph 23.0 mph N/A   Clear
7:15 PM 85.1 °F 8.4 °F 6% 29.72 in 10.0 mi WSW 18.4 mph 26.5 mph N/A   Clear
7:35 PM 84.6 °F 8.6 °F 6% 29.72 in 10.0 mi WSW 18.4 mph 25.3 mph N/A   Clear
7:55 PM 83.5 °F 8.4 °F 6% 29.72 in 10.0 mi WSW 17.3 mph - N/A   Clear
8:15 PM 82.8 °F 8.8 °F 6% 29.73 in 10.0 mi WSW 16.1 mph - N/A   Clear
8:35 PM 81.9 °F 9.5 °F 6% 29.73 in 10.0 mi WSW 12.7 mph - N/A   Clear
8:55 PM 80.6 °F 9.3 °F 7% 29.74 in 10.0 mi WSW 11.5 mph - N/A   Clear
9:15 PM 79.9 °F 8.8 °F 7% 29.74 in 10.0 mi WSW 10.4 mph - N/A   Clear
9:35 PM 79.2 °F 8.6 °F 7% 29.74 in 10.0 mi WSW 9.2 mph - N/A   Clear
9:55 PM 77.9 °F 7.7 °F 7% 29.75 in 10.0 mi WSW 10.4 mph - N/A   Clear
10:15 PM 78.8 °F 8.2 °F 7% 29.76 in 10.0 mi WSW 12.7 mph - N/A   Clear
10:35 PM 77.9 °F 8.4 °F 7% 29.77 in 10.0 mi WSW 13.8 mph - N/A   Clear
10:55 PM 77.0 °F 11.3 °F 8% 29.78 in 10.0 mi West 9.2 mph - N/A   Clear
11:15 PM 76.1 °F 12.9 °F 9% 29.78 in 10.0 mi West 10.4 mph - N/A   Clear
11:35 PM 75.2 °F 13.1 °F 9% 29.79 in 10.0 mi West 10.4 mph - N/A   Clear
11:55 PM 73.4 °F 12.7 °F 10% 29.79 in 10.0 mi West 10.4 mph - N/A   Clear